Presure
113 88 109 96 81 121 93 110 114 134 134 110 97 91 100 133 123 119 125 129 134 131 145 132 110 150 141 129 132 120 132 130 103 114 103 109 133 132 129 125 142 129 126
88 92 89 123 104 84 102 126 84 98 131 112 140 103 129 89 121 112 114 115 133 123 133 143 133 132 144 126 103 126 121 136 126 122 151 148 127 151 123 139 126 134 133
98 90 97 125 130 100 130 87 94 99 90 89 102 106 122 124 108 97 126 125 133 135 117 123 111 122 120 123 118 100 102 102 131 120 132 126 139 144 127 126 129 132 124
94 91 129 95 97 107 95 97 94 116 106 92 104 96 126 158 140 134 115 123 130 119 117 117 122 154 126 118 119 119 154 126 138 142 142 135 128 138 144 134 124 127 131
93 99 97 117 106 96 83 93 97 125 133 91 134 96 118 137 110 117 124 110 104 111 124 146 114 118 98 114 116 130 112 161 147 148 138 136 97 124 81 101 117 143 140
101 103 99 96 99 102 97 98 112 118 95 104 134 89 147 142 141 133 145 149 143 127 122 113 155 117 91 110 112 96 124 125 142 124 139 131 82 136 132 144 132 140 149
90 154 100 125 103 109 120 97 111 97 105 116 103 136 129 140 110 124 129 122 140 146 142 129 144 93 132 119 90 141 98 136 143 127 143 131 121 141 138 149 142 151 144
103 118 151 111 112 108 131 110 119 118 137 119 124 132 122 117 140 142 114 122 126 143 141 173 124 147 155 147 146 125 140 141 132 147 128 134 136 136 151 138 147 145 159
149 141 132 83 118 142 117 105 122 83 125 115 126 123 131 120 124 132 139 141 132 117 123 133 161 144 143 150 142 144 162 141 134 141 102 134 128 143 138 151 147 145 144
115 110 139 114 144 129 151 90 160 121 142 122 114 119 128 133 129 125 127 139 140 115 126 127 87 125 156 152 148 133 84 134 136 129 131 136 142 143 146 151 155 148 142
114 106 162 148 152 94 148 149 143 112 140 141 130 128 131 134 125 118 118 125 133 130 127 130 152 157 89 152 148 135 135 127 131 147 143 140 138 140 146 149 149 137 149
133 131 74 147 157 156 145 148 157 155 153 146 142 148 142 142 130 139 129 148 115 145 139 158 178 121 148 148 160 121 116 150 137 144 144 141 138 125 137 146 146 143 141
73 148 127 133 83 151 157 135 125 154 158 155 149 149 151 158 153 154 137 134 130 146 132 143 152 165 152 145 146 159 152 155 140 141 137 127 149 150 135 157 141 141 158
103 129 158 92 158 155 153 156 151 157 148 80 104 157 153 150 159 88 89 153 147 96 138 143 84 101 131 128 127 94 109 140 141 151 153 141 148 141 143 149 144 161 146
91 151 81 96 135 112 134 77 84 146 76 101 163 158 156 159 159 80 151 77 147 160 87 135 88 149 145 148 143 127 137 141 127 146 148 146 153 157 156 135 146 151 146
81 76 83 75 94 145 139 133 75 132 137 74 120 133 147 152 78 104 109 156 159 110 145 148 141 108 139 137 136 133 140 138 138 150 156 142 168 144 161 151 145 159 160
82 78 69 74 73 71 75 96 84 72 151 77 85 83 78 82 142 87 97 150 150 135 142 134 150 147 147 147 145 146 151 148 146 144 136 164 152 168 149 156 153 168 158
168 182 167 162 165 94 80 106 76 152 150 137 108 90 137 140 143 98 157 152 152 146 149 147 141 145 146 147 137 132 136 138 135 140 158 143 162 152 156 155 169 155 159
174 170 162 127 167 160 167 161 158 157 122 165 156 156 153 154 151 151 148 147 155 150 144 145 143 145 151 152 143 146 150 152 157 157 146 161 150 149 163 160 170 171 169
151 172 157 173 179 165 162 163 156 147 143 148 153 151 146 157 161 160 159 158 150 134 138 136 143 145 144 150 152 150 151 156 152 142 158 153 150 167 158 173 166 178 189
189 159 164 162 170 172 158 159 161 169 160 160 157 154 154 157 152 150 155 144 162 159 163 155 154 150 151 149 143 158 151 159 161 152 157 162 158 161 176 168 169 187 179
159 153 170 192 165 177 181 157 167 165 162 166 162 161 133 163 155 159 162 163 161 155 162 156 155 153 149 151 161 160 161 155 155 153 159 170 168 166 162 172 188 187 183
195 180 173 191 181 170 168 171 171 171 175 165 166 170 175 166 182 154 168 171 162 163 169 172 166 165 167 162 169 174 133 129 170 152 166 166 171 181 167 182 185 174 170
180 178 183 152 155 190 190 182 186 129 130 184 151 182 186 182 176 175 176 171 173 178 184 179 178 181 145 186 184 179 186 187 181 181 185 182 183 183 185 162 192 192 175
140 179 187 188 183 209 187 193 188 184 175 174 187 125 168 171 174 185 173 159 189 125 123 187 185 186 171 170 189 190 167 188 188 185 181 185 145 187 145 162 152 201 188
127 132 140 162 176 181 181 181 181 168 147 151 167 179 178 168 180 174 162 129 180 171 167 162 170 144 154 152 188 188 185 188 183 168 186 161 184 134 180 179 138 151 183
Wind_Speed
22 9 30 14 8 32 9 22 25 33 31 20 12 10 16 30 28 27 28 25 28 29 27 30 26 28 30 32 31 35 35 37 27 37 26 35 41 28 45 50 42 53 53
13 14 11 43 26 7 16 35 10 17 33 21 33 23 30 14 30 28 30 32 29 32 29 30 31 33 33 34 26 35 37 35 40 41 33 33 46 33 51 43 54 51 53
22 18 21 43 41 21 37 13 16 21 12 13 24 25 31 31 24 21 32 33 32 32 31 31 31 32 33 35 34 24 27 28 43 42 41 47 42 38 51 51 44 55 54
23 21 33 22 21 28 19 23 19 33 26 18 24 22 27 34 38 34 32 33 34 33 32 32 33 36 37 34 36 37 36 43 43 42 42 45 48 45 43 49 54 47 47
25 30 29 34 29 23 16 19 25 38 41 19 38 23 33 35 33 35 36 34 30 34 36 39 32 36 28 36 38 41 37 39 42 42 45 46 30 50 23 35 49 52 54
35 36 32 27 31 31 28 28 35 38 24 34 42 20 38 40 40 41 40 38 40 40 39 36 41 38 26 38 40 30 45 46 44 48 47 50 24 53 53 50 56 56 53
26 52 32 48 30 38 41 30 37 28 35 40 34 41 38 42 36 42 42 38 42 41 42 41 41 27 41 41 25 47 26 48 46 49 46 50 47 53 56 51 54 53 56
41 44 55 45 44 39 41 40 43 43 49 43 43 46 45 44 43 43 42 44 44 43 44 45 47 45 45 45 45 42 48 48 50 47 52 54 55 57 52 59 54 56 58
62 58 59 20 48 50 47 37 49 20 52 45 48 47 49 47 48 47 46 45 42 44 39 46 46 46 48 46 47 48 43 49 52 50 35 55 54 57 58 53 55 56 59
55 49 61 51 58 58 53 24 51 51 56 51 44 48 51 51 51 51 51 48 48 47 48 47 22 50 47 48 48 51 27 52 53 54 55 58 57 57 56 54 55 58 62
49 36 62 60 58 27 56 55 55 46 60 59 58 57 56 55 53 49 50 52 52 53 51 52 49 48 28 50 50 51 53 53 54 54 57 57 57 58 56 56 57 66 63
65 64 16 55 61 60 59 58 54 55 57 59 60 58 60 58 57 57 57 53 44 52 55 47 43 40 51 50 50 45 40 55 56 58 57 58 58 59 62 62 61 64 66
18 67 65 53 22 62 61 54 58 56 57 56 57 59 59 54 57 54 59 53 59 51 55 51 50 46 50 52 52 50 55 55 58 59 59 58 60 58 66 60 67 68 65
42 67 70 30 66 64 58 61 59 58 53 21 34 56 58 58 54 26 29 54 54 37 54 47 39 46 57 55 57 33 41 57 60 60 60 62 62 65 65 61 65 67 69
36 73 29 37 60 45 64 20 29 60 20 37 59 59 59 56 56 25 52 29 56 51 31 57 39 53 56 54 57 60 59 59 60 61 62 63 63 62 63 70 69 69 69
39 27 38 21 32 70 67 64 20 58 62 22 49 61 60 59 21 39 43 57 56 49 56 54 57 53 61 62 62 63 63 63 64 63 64 66 67 66 71 66 68 74 75
46 37 19 27 24 19 27 39 40 21 67 29 40 36 30 39 59 45 42 60 59 60 59 63 59 61 62 63 63 63 64 64 65 65 67 73 67 77 67 70 71 83 74
89 87 85 79 79 46 40 54 28 70 70 66 50 45 66 63 64 51 64 61 63 64 64 63 65 64 66 65 67 68 70 69 67 69 72 67 75 73 73 74 84 69 74
92 87 80 59 83 78 82 79 79 76 56 78 74 75 74 71 67 66 62 62 69 67 66 67 68 68 70 70 70 72 74 76 78 75 73 82 72 73 86 79 88 90 87
71 90 71 87 87 83 80 81 78 70 64 67 72 72 67 75 76 75 74 74 68 69 70 71 71 71 71 74 77 76 76 80 75 67 82 77 75 90 80 95 85 97 100
96 79 84 75 87 89 78 80 83 87 81 83 81 81 77 79 73 70 74 66 80 78 82 77 76 74 76 75 71 85 77 85 86 76 81 89 81 85 98 87 87 102 95
82 74 90 94 83 91 95 76 88 88 85 89 87 88 64 90 75 82 84 83 81 75 83 77 78 80 78 79 87 86 89 85 85 83 88 101 92 89 81 91 104 100 97
92 92 90 95 96 89 86 90 91 90 91 89 92 96 96 86 93 69 90 92 82 84 90 92 90 90 91 90 92 95 67 67 98 85 94 95 97 104 87 99 100 89 79
87 89 92 75 76 93 99 98 100 65 66 96 78 96 97 96 89 91 97 93 95 97 98 96 96 98 77 98 99 97 99 98 96 97 98 100 102 103 104 81 106 105 87
71 84 91 92 92 103 95 98 97 97 93 92 96 68 89 92 95 96 91 84 98 71 67 97 96 96 89 90 99 100 87 99 99 97 98 101 78 104 62 76 64 109 100
70 67 73 77 88 93 93 94 95 88 71 72 88 94 91 89 95 94 83 72 94 87 87 79 86 76 83 82 96 97 96 98 98 90 100 90 102 60 95 92 66 65 93
Wind_Direction
240 245 246 265 201 248 280 257 265 254 253 274 276 284 300 269 278 282 286 282 288 288 293 294 306 296 296 306 308 312 310 310 314 321 317 322 309 302 313 319 314 314 319
250 262 265 246 244 230 260 258 226 286 260 258 255 290 271 272 279 284 287 290 286 290 294 296 298 301 296 308 308 313 313 304 311 315 291 293 314 302 319 303 315 308 311
254 268 272 242 242 269 247 237 278 278 276 282 290 287 276 275 296 308 278 283 288 293 295 298 303 303 305 309 309 303 306 308 307 314 307 312 300 300 314 313 304 310 321
252 262 242 267 259 264 271 280 266 268 263 286 283 293 276 261 273 275 280 281 287 290 292 296 299 293 303 306 308 305 290 307 301 298 297 303 311 302 302 303 314 308 309
253 251 260 249 250 267 242 264 279 259 259 275 260 285 277 270 284 281 279 287 294 294 293 290 297 299 302 303 303 303 306 286 293 292 299 302 310 313 314 313 311 305 307
248 249 251 260 264 266 272 275 273 266 273 283 260 273 261 265 269 275 275 277 279 287 291 299 291 297 305 302 301 307 302 303 298 307 299 306 308 304 308 303 307 306 310
244 235 251 241 252 258 255 269 265 277 279 268 285 264 271 266 287 281 280 282 277 283 283 289 290 298 294 296 316 294 313 299 296 305 297 306 307 302 303 304 306 308 306
248 240 234 255 258 261 250 264 264 266 256 269 269 263 273 281 268 270 289 284 283 282 283 289 290 290 291 290 290 298 294 295 301 295 306 305 306 306 304 304 306 306 317
237 242 242 233 250 243 260 265 262 271 265 274 267 270 266 276 275 272 273 276 279 289 287 287 289 291 290 290 291 292 288 294 299 296 301 305 308 302 303 306 305 304 304
250 253 241 257 240 253 246 261 246 264 256 271 274 276 269 269 272 277 279 276 278 287 284 288 310 290 290 289 290 293 315 296 296 303 303 301 300 300 301 305 309 302 304
244 239 241 242 244 253 245 250 253 267 257 258 267 270 269 268 274 282 285 284 281 284 286 288 288 289 301 289 289 292 293 296 297 291 294 299 301 303 301 303 303 305 311
246 247 247 244 246 247 246 249 251 252 253 256 260 261 264 266 273 271 278 272 285 281 284 286 286 290 286 288 286 294 297 287 295 295 296 299 300 308 302 305 301 301 304
270 242 249 245 237 248 249 252 260 255 256 257 258 260 263 263 266 269 274 278 281 278 283 282 282 286 285 287 289 289 289 288 293 295 298 305 294 296 300 305 302 301 312
249 246 241 246 248 252 252 251 253 254 257 275 266 259 262 265 267 288 292 269 271 292 278 280 302 295 290 292 297 296 297 294 294 292 292 296 294 297 297 298 296 310 300
257 242 257 253 247 252 252 266 260 256 270 266 260 262 263 266 268 294 272 296 269 276 295 282 298 279 281 282 285 296 293 291 301 290 291 292 296 300 303 299 304 302 301
259 259 262 260 253 249 253 256 267 258 259 275 265 266 263 266 282 279 284 273 275 286 274 276 278 289 284 286 288 293 290 292 293 291 295 295 303 293 304 299 298 309 310
255 260 267 266 269 270 271 262 261 270 258 279 277 280 284 285 266 289 281 274 275 277 276 278 278 279 280 280 283 286 290 288 287 290 297 302 299 306 296 305 303 310 309
239 235 240 242 241 259 265 259 275 258 259 261 270 279 266 265 268 282 272 274 276 276 277 277 278 278 280 282 284 289 290 291 294 295 301 294 304 300 304 303 308 306 309
236 240 245 252 242 247 244 250 254 257 262 257 261 264 264 266 269 270 270 270 275 274 275 276 278 280 284 286 284 286 290 293 296 298 295 301 298 298 305 305 307 309 311
245 240 250 242 242 246 248 248 252 258 260 262 263 265 267 269 268 270 271 272 271 273 275 277 277 279 282 285 287 288 290 293 295 290 297 298 296 303 303 305 307 309 310
236 247 247 247 245 244 252 252 252 250 257 260 264 267 267 269 269 269 270 269 272 274 276 276 279 281 282 283 284 288 292 292 294 296 299 299 297 301 303 305 307 308 310
241 244 244 240 249 245 244 252 251 255 257 257 261 264 267 268 270 271 270 271 272 276 277 278 281 282 282 284 286 289 290 293 297 293 296 297 299 299 303 305 305 307 308
237 240 245 242 245 252 254 252 252 253 253 257 260 261 265 265 267 271 270 270 273 275 276 277 279 281 281 285 286 285 291 298 293 296 295 295 297 299 303 303 305 307 307
240 242 243 249 250 246 248 251 254 259 262 255 261 262 264 264 264 265 269 273 276 275 276 278 279 281 284 282 285 289 291 291 292 293 294 295 297 299 301 306 303 303 305
248 244 243 244 246 245 249 250 251 254 258 261 261 265 266 270 273 271 270 273 273 280 285 279 280 281 281 285 287 289 289 291 292 293 294 295 300 298 309 308 303 303 306
253 253 251 249 248 249 251 252 253 256 262 264 265 265 263 267 267 272 278 272 280 274 277 281 283 287 285 287 286 286 288 290 291 293 293 297 297 301 300 300 298 306 307